Flag for United Kingdom Weather past 2 weeks in Chichester, England, United Kingdom

Now
64 °F

Mild.


Feels Like: 64 °F
Forecast: 59 / 67 °F
Wind: 13 mph from West

Location: Thorney Island

Current Time: Aug 28, 2014 at 5:15:45 AM

Latest Report: Aug 28, 2014 at 4:00 AM


Visibility: 12 mi

Pressure: 29.80 "Hg

Humidity: 98%

Dew point: 63 °F

Location of ChichesterLocation

Historic Weather in Chichester — Graph

°F

Chichester temperature yesterday

Maximum temperature yesterday: 64 °F (at 5:00 PM)
Minimum temperature yesterday: 53 °F (at 6:00 AM)
Average temperature yesterday: 60 °F

Past Weeks' High & Low Weather Summary

 TemperatureHumidityPressure
High71 °F (Aug 13, 1:00 PM)99% (Aug 28, 3:00 AM)30.19 "Hg (Aug 28, 3:00 AM)
Low42 °F (Aug 24, 6:00 AM)40% (Aug 23, 3:00 PM)29.56 "Hg (Aug 26, 5:00 AM)
Average59 °F76%29.91 "Hg
* Reported Aug 13 4:00 AM — Aug 28 4:00 AM, Chichester, Weather by CustomWeather, © 2014

Note: Actual official high and low records may vary slightly from our data, if they occured in-between our weather recording intervals... More about our weather records

Advertising

Chichester weather history for previous 24 hours

 ConditionsComfort  
Time TempWeatherWind HumidityBarometerVisibility
4:00 AM
Aug 28
64 °FMild.13 mph98%29.80 "Hg12 mi
3:00 AM64 °FMild.15 mph99%29.81 "Hg6 mi
2:00 AM63 °FLots of rain. Overcast.15 mph97%29.82 "Hg3 mi
1:00 AM63 °FMild.15 mph96%29.83 "Hg9 mi
12:00 AM62 °FMild.13 mph98%29.85 "Hg11 mi
11:00 PM
Aug 27
61 °FFog.10 mph98%29.86 "Hg2 mi
10:00 PM61 °FFog.17 mph95%29.88 "Hg4 mi
9:00 PM64 °FMild.15 mph88%29.88 "Hg22 mi
8:00 PM64 °FMild.12 mph91%29.88 "Hg11 mi
6:00 PM64 °FMild.14 mph89%29.90 "Hg17 mi
5:00 PM64 °FMild.15 mph90%29.90 "Hg9 mi
4:00 PM63 °FMild.14 mph92%29.92 "Hg14 mi
3:00 PM62 °FCool.14 mph96%29.93 "Hg2 mi
2:00 PM63 °FSmoke.16 mph85%29.94 "Hg6 mi
1:00 PM64 °FMild.15 mph80%29.95 "Hg7 mi
12:00 PM64 °FMild.16 mph80%29.95 "Hg7 mi
11:00 AM63 °FMild.13 mph80%29.96 "Hg9 mi
9:00 AM60 °FCool.10 mph83%29.95 "Hg15 mi
8:00 AM58 °FCool.10 mph85%29.94 "Hg19 mi
7:00 AM56 °FCool.10 mph89%29.93 "Hg16 mi
6:00 AM53 °FCool.10 mph91%29.92 "Hg16 mi
5:00 AM54 °FCool.9 mph88%29.92 "Hg16 mi
Weather by CustomWeather, © 2014

See weather overviewHow to use our weather pages